Regional Weather Roundup
Issued by NWS Portland, ME

Home | Current Version | Previous Version | Text Only | Print | Product List | Glossary On
Versions: 1 2 3 4 5 6 7 8 9 10 11 12 13 14 15 16 17 18 19 20 21 22 23 24 25 26 27 28 29 30 31 32 33 34 35 36 37 38 39 40 41 42 43 44 45 46 47 48 49 50
000
ASUS41 KGYX 281610
RWRGYX
WEATHER ROUNDUP FOR MAINE AND NEW HAMPSHIRE
NATIONAL WEATHER SERVICE GRAY ME
1100 AM EST WED JAN 28 2015

MEZ002-005-006-010-012-015-018-020-021-024-026-027-029-281700-
MAINE

CITY           SKY/WX    TMP DP  RH WIND       PRES   REMARKS
PORTLAND       MOSUNNY   21   6  52 N15       29.92R WCI   8
SANFORD        SUNNY     19   3  49 NW10      29.92S WCI   8
BAR HARBOR     CLOUDY    18  16  93 N14G24    29.81R WCI   4
WISCASSET      MOSUNNY   20   7  57 VRB7      29.91R
ROCKLAND       CLOUDY    19   7  58 N14G22    29.86R WCI   6
FRYEBURG       CLOUDY    19   4  51 N12G20    29.93R WCI   7
LEWISTONAUBURN MOSUNNY   18   3  53 N14G20    29.90S WCI   4
AUGUSTA        PTSUNNY   16   5  62 NW20G28   29.89R WCI  -1
WATERVILLE     PTSUNNY   18  12  79 NW15      29.86S WCI   3
BANGOR         PTSUNNY   17   9  70 N21G32    29.86R WCI   0
GREENVILLE       N/A      8   2  76 NW17G30   29.80S WCI -10
MILLINOCKET    LGT SNOW  16   6  65 N12G22    29.88R WCI   3
HOULTON        LGT SNOW  14   7  73 N16G24    29.83R WCI  -2
PRESQUE ISLE   CLOUDY    10   7  85 NW15      29.88R WCI  -6
FRENCHVILLE    FLURRIES   7   1  76 N16G28    29.85F WCI -11
CARIBOU        LGT SNOW  10   4  76 NW22      29.86S WCI -10
$$

NHZ002-005-008-009-011-012-014-281700-
NEW HAMPSHIRE

CITY           SKY/WX    TMP DP  RH WIND       PRES   REMARKS
PORTSMOUTH     PTSUNNY   18   6  58 NW16G23   29.93R WCI   4
ROCHESTER      MOSUNNY   18   5  57 NW14      29.92R WCI   4
NASHUA         PTSUNNY   16   4  59 NW15      29.98S WCI   1
MANCHESTER     FLURRIES  16   4  59 NW13G22   29.96S WCI   2
CONCORD        MOSUNNY   16   3  56 NW15G22   29.96S WCI   1
LACONIA        CLOUDY    18   5  57 NW10G16   29.92S WCI   6
PLYMOUTH       FAIR      17   7  66 W12G21    29.97R WCI   4
BERLIN         CLOUDY    11   1  64 N12       29.94R WCI  -3
WHITEFIELD     CLOUDY    11   2  67 NW8       29.98R
JAFFREY        SUNNY     16   3  56 NW10      29.91S WCI   4
KEENE          PTSUNNY   16   3  57 N16       29.99R WCI   0
LEBANON        CLOUDY    17   3  54 N14       30.02R WCI   3
MT WASHINGTON  BLWGSNOW   3   3 100 N47G71      N/A  VSB 1/16WCI -26
$$

VTZ005-007-008-281700-
VERMONT

CITY           SKY/WX    TMP DP  RH WIND       PRES   REMARKS
ST JOHNSBURY     N/A     13   2  61 MISG      30.02R
MONTPELIER     MOSUNNY    7  -1  70 NW13      30.05R WCI  -9
BURLINGTON     MOSUNNY   12  -6  44 N12       30.16R WCI  -2
$$

MAZ007-012-024-CTZ003-RIZ002-NYZ038-NYZ072-281700-
SOUTHERN NEW ENGLAND AND NY

CITY           SKY/WX    TMP DP  RH WIND       PRES   REMARKS
BOSTON         PTSUNNY   18   5  57 NW15G22   29.97R WCI   4
WORCESTER      MOSUNNY   14   3  61 NW10      29.89S WCI   1
NANTUCKET      MOSUNNY   23  16  74 NW15G23   29.91R WCI  10
PROVIDENCE     PTSUNNY   20   5  52 NW8       29.96R
HARTFORD       PTSUNNY   20   5  52 N15       30.00R WCI   6
ALBANY         MOSUNNY   15  -1  49 N16       30.13R WCI  -1
NEW YORK CITY  MOSUNNY   24   6  46 N12       30.06R WCI  13
$$

ANZ081-ANZ082-ANZ150-NHZ014-MEZ023>029-281700-
COASTAL MARINE OBSERVATIONS

STATION/POSITION TIME  TEMP    WIND        PRES    WAVE
                       AIR SEA DIR/SP/G            HT/PER
                 (UTC) (F)     (DEG/KT/KT) (MB)    (FT/S)
MOUNT DESERT ROC 1600   19                 1008.0R
MATINICUS ROCK   1600          340/ 28/ 31 1010.3R
PORTLAND WX BUOY 1550   21 40  340/ 21/ 27 1012.6R   6/11
WELLS            1500   19 32  340/ 13/ 17 1012.5R
ISLE OF SHOALS   1600   20     320/ 19/ 25 1012.8R
JEFFREYS LEDGE   1521      44                N/A    10/11
CASHES LEDGE BUO 1550   22 44  330/ 21/ 27 1010.5
$$

.............KEY..............
   WCI - WIND CHILL
   TC  - TEMPERATURE IN CELSIUS
   VSB - VISIBILITY IN MILES
   HX  - HEAT INDEX
   FAIR- INDICATES FEW OR NO CLOUDS BELOW 12,000 FT, WITH NO
         SIGNIFICANT WEATHER AND/OR OBSTRUCTIONS TO VISIBILITY.




USA.gov is the U.S. government's official web portal to all federal, state and local government web resources and services.